COSMOS 249 DEB, 3923

Orbit data source: Space-Track

COSMOS 249 DEB, 3923 is space debris in LEO originally from a launch on Sun, 20 Oct 1968 UTC launched from the Tyuratam Missile And Space Complex (TTMTR). Debris objects in space refer to the collection of defunct objects orbiting the Earth. Examples of debris include non-operational satellites, rocket bodies, and fragments generated from explosions, collisions, or faulty payload assembly.

Loading next visibility...
Identifier
3923, 1968-091BR
Orbit
LEO
Country
Flag of CISCIS
Related business
Manufacturer
Unknown
Mission
Spacecraft
Bus & Motor
Unknown
Mass
Unknown
Launch date (UTC)
1968-10-20 (58 years ago)
Launch vehicle
Unknown
Launch site
Tyuratam Missile And Space Complex (TTMTR)
Object type
Payload
Rocket body
Debris
Shape & HBR
Unknown shape, 0.1 m
Radar Cross Section
Medium (>0.1 m² and <1 m²)

Expand to show TLE details & history
Last TLE update: 1 day ago

TLE from 1 day ago
0 COSMOS 249 DEB
1 03923U 68091BR  26174.02499226  .00000817  00000-0  55410-3 0  9999
2 03923  62.2302  51.6655 0580470 208.4168 148.4034 13.45411814717400
Epoch: 2026-06-23T00:35Z
TLE epoch observation values (Epoch: 2026-06-23T00:35:59.331Z)
Latitude
0.00005°
Longitude
131.46583°
Altitude
1,466.496 km
Speed
6.949 km/s
True Right ascension
03h 26m 39s
True Declination
0° 00' 00"
Sunlit
Object was in daylight at epoch
Visualization orbit readout
Latitude
Unknown
Longitude
Unknown
Altitude
Unknown
Speed
Unknown
Apparent Right ascension
Unknown
Apparent Declination
Unknown
Sunlit
N/A
Visualization observer readout
Local Sidereal Time
17:50:51
Azimuth
Unknown
Elevation
Unknown
Doppler factor
Unknown
Orbital elements
Apogee altitude
1,521.554 km
Perigee altitude
654.762 km
Semi-major axis
7,466.295 km
Eccentricity
0.05805
Inclination
62.2302°
RAAN
51.6655°
Arg. of periapsis
208.4168°
True anomaly
151.6834°
Mean anomaly
148.4034°
Eccentric anomaly
150.06315°
Mean motion
3.36423 °/min
Orbital period
107.01 mins
BSTAR
0.0005541
Loading maneuver chart data...
Computing Atmospheric mass density...

Documentation

Showing up to 5 results
|